Wind_Speed
40 41 39 37 35 33 33 33 33 32 32 31 29 28 27 24 23 23 22 20 18 18 18 19 20 21 23 25 25 25 28 29 27 25 24 24 23 22 21 20 18 17 15
39 40 41 40 38 37 35 34 33 32 31 30 29 28 26 24 23 22 22 21 20 20 20 20 19 20 21 22 23 24 26 30 31 30 28 26 26 25 24 22 21 19 18
37 38 40 40 39 37 34 32 32 31 30 29 29 28 26 24 22 21 22 22 22 22 22 22 22 22 22 22 23 24 25 27 31 33 32 30 28 27 27 25 24 22 20
34 35 36 38 38 37 35 33 32 32 31 30 29 29 28 25 24 24 23 23 24 23 22 22 23 24 24 24 24 24 25 26 29 33 35 34 32 30 29 28 26 25 23
31 32 33 35 36 36 35 34 33 33 32 31 30 30 30 28 27 26 25 25 24 23 22 21 22 23 24 25 25 25 26 26 27 31 36 37 36 34 32 30 29 27 25
28 29 31 33 33 34 34 34 34 33 33 32 31 31 32 32 30 28 26 25 24 23 21 20 21 22 23 24 25 26 26 26 26 27 32 37 39 38 35 34 32 30 29
28 28 29 30 31 33 33 33 33 34 34 33 32 32 32 32 32 30 28 26 24 23 21 20 19 19 20 22 22 23 25 26 26 27 28 33 39 41 39 37 35 33 32
32 30 29 29 29 31 32 32 32 33 33 33 32 31 31 31 31 30 29 26 25 22 20 18 17 17 17 18 19 21 23 24 25 27 28 29 33 39 41 39 38 36 34
36 35 33 32 31 30 30 31 31 31 31 32 32 30 29 30 30 29 28 26 25 23 20 18 17 16 16 16 16 18 20 22 23 25 27 28 29 32 36 38 38 38 37
41 41 39 38 36 34 33 32 32 31 31 31 32 31 30 29 29 29 29 27 26 24 22 20 18 17 15 15 16 16 17 19 20 22 25 27 28 29 31 34 37 38 38
46 46 46 44 42 40 38 36 34 33 32 31 32 32 31 31 31 31 30 29 28 26 24 23 20 18 17 16 15 14 15 16 18 20 22 25 27 29 30 31 34 35 36
49 50 50 50 49 47 44 42 40 38 36 34 33 33 34 34 34 34 33 32 30 28 27 25 22 20 19 18 16 15 14 15 16 18 20 23 26 28 29 30 32 33 35
52 53 53 54 54 53 51 49 47 45 42 39 37 36 36 37 37 37 36 35 33 31 29 27 24 22 21 20 19 17 15 14 15 17 19 21 24 27 29 30 31 32 33
48 51 53 56 57 58 57 56 54 52 49 46 43 41 39 39 40 40 39 38 36 33 31 29 27 24 22 21 20 18 17 15 15 16 18 21 23 26 28 29 30 31 32
46 48 50 53 56 59 61 61 60 58 56 53 50 47 44 43 42 42 42 41 39 37 34 32 29 27 24 23 22 20 19 18 17 17 19 20 22 25 27 29 30 30 31
49 51 52 53 55 57 60 63 64 64 62 60 57 53 50 48 46 45 45 44 43 41 38 36 33 30 27 26 24 22 22 21 21 20 21 21 22 24 26 28 29 30 30
54 56 57 58 58 59 60 62 64 66 67 65 64 62 56 52 50 49 48 47 46 44 42 39 36 33 31 28 26 25 24 23 23 22 23 23 23 23 25 26 27 28 28
59 60 61 62 62 62 62 63 64 66 68 69 69 68 64 59 56 53 52 51 49 47 45 42 39 36 33 30 28 26 25 24 24 24 25 25 24 24 24 25 26 26 26
61 61 61 63 64 65 66 65 65 65 67 69 71 71 71 67 61 57 55 54 52 50 48 45 42 39 36 32 30 27 26 25 25 25 25 25 24 24 25 26 26 25 24
63 62 62 62 63 64 66 66 66 66 66 68 71 73 74 73 68 63 58 56 55 53 51 49 46 42 38 35 32 29 26 25 25 25 25 24 24 24 25 27 27 26 25
60 59 58 59 61 62 64 65 65 66 66 67 68 71 74 76 73 69 63 57 56 55 53 51 49 45 41 38 34 31 28 26 25 25 24 24 24 24 26 27 27 26 25
52 51 51 53 54 57 59 61 63 63 63 63 65 67 70 74 76 73 68 63 58 57 56 53 50 47 44 40 37 33 30 27 25 25 24 24 24 24 25 27 27 26 26
45 44 44 46 49 51 53 56 59 59 59 57 59 61 64 69 72 75 73 69 63 58 59 57 53 49 46 43 39 35 32 29 27 25 24 24 23 24 25 27 27 27 26
38 36 36 37 42 46 48 51 54 54 53 51 50 52 56 59 66 71 74 72 68 62 56 56 54 52 49 46 42 38 34 31 28 25 24 24 23 23 23 25 26 26 25
33 30 29 30 33 39 43 46 47 47 47 45 43 44 47 50 56 64 69 71 68 65 61 54 51 52 51 48 43 39 35 32 28 26 24 24 23 22 22 23 23 23 23
28 25 22 23 27 32 37 40 42 42 42 41 40 39 40 43 47 53 59 65 68 68 64 58 52 49 49 47 44 40 37 33 29 26 24 23 22 21 20 20 21 21 21
Wind_Direction
273 270 267 266 265 264 264 261 260 259 257 257 261 265 266 265 258 250 247 251 252 253 251 254 256 255 253 250 245 240 232 223 218 218 220 220 220 220 220 221 221 221 219
272 269 265 265 263 263 263 261 260 259 256 255 257 261 263 261 253 246 242 244 249 253 250 250 251 250 250 249 246 244 240 231 222 218 218 220 221 222 223 223 224 224 224
272 269 265 265 266 265 263 261 259 258 255 253 254 256 258 256 247 245 243 245 250 253 253 251 250 249 249 249 248 246 245 241 231 224 220 220 221 223 224 225 226 227 228
274 272 269 267 267 265 263 260 258 257 254 252 252 253 253 252 247 245 246 250 253 254 254 252 252 251 251 250 249 248 246 245 239 230 226 223 222 223 225 226 227 229 230
277 272 269 268 266 266 264 260 257 254 253 252 252 251 251 250 249 247 249 252 254 254 252 249 250 250 250 249 249 248 246 246 243 236 231 227 225 224 225 226 228 229 231
282 276 271 270 266 264 261 257 255 253 253 253 252 251 250 250 251 251 251 253 253 251 250 249 248 248 249 249 249 249 248 247 245 242 237 232 228 226 226 227 229 230 231
283 280 274 270 266 261 259 258 256 254 252 251 251 250 250 250 249 250 251 251 249 247 248 248 248 250 250 250 249 249 248 246 245 244 241 236 232 230 228 228 230 231 232
278 277 275 270 267 263 259 258 257 254 252 250 249 248 248 247 247 247 247 246 244 243 244 245 247 249 252 252 251 250 250 248 247 245 243 240 237 235 234 231 231 232 234
274 272 270 269 267 266 262 258 256 255 253 250 248 245 245 245 244 242 242 241 240 240 240 242 244 248 251 253 253 252 252 251 250 248 246 244 242 239 236 235 235 235 235
269 267 266 265 264 263 262 259 257 255 252 250 246 243 242 241 239 238 237 236 236 235 236 238 241 245 249 253 255 257 256 256 254 252 249 247 245 244 242 239 237 237 238
267 264 263 261 261 260 259 258 256 254 252 249 246 243 240 238 235 234 233 233 233 233 234 236 238 243 247 252 256 260 261 261 260 258 254 251 248 245 242 240 240 239 240
267 265 262 260 259 258 257 256 255 253 251 248 245 242 240 237 234 232 231 231 232 232 234 235 236 241 246 249 254 260 265 267 268 267 263 257 252 248 245 243 241 240 241
268 265 262 261 259 257 255 254 254 253 251 248 246 242 240 237 235 233 231 231 232 232 233 234 235 239 243 247 251 255 262 268 273 275 273 266 259 253 249 246 244 242 242
271 267 263 261 259 257 255 253 251 250 250 249 246 244 240 237 236 234 233 231 231 232 232 232 233 235 239 243 248 252 257 264 273 279 279 273 265 257 251 249 247 245 245
273 270 267 263 260 257 255 253 251 249 248 247 246 244 242 239 237 235 234 232 232 231 230 230 231 233 235 239 243 248 255 261 269 277 281 278 270 261 255 251 250 248 247
273 271 268 264 261 258 255 252 250 249 246 245 245 244 242 240 238 236 234 232 232 232 231 229 229 230 233 236 241 247 254 260 266 273 279 279 273 264 256 253 251 250 249
275 271 268 264 261 258 255 251 249 248 246 244 243 242 241 240 237 236 234 232 231 232 232 231 229 230 232 235 240 246 253 259 264 270 275 278 275 266 258 253 252 251 250
278 273 268 264 260 257 254 251 248 246 245 243 242 242 241 240 238 236 234 231 230 230 231 232 231 231 232 234 238 244 252 259 264 267 272 275 275 267 258 253 251 249 250
280 274 268 263 259 256 252 249 247 245 243 242 241 241 241 241 239 237 234 230 228 228 229 231 232 232 233 234 237 242 250 257 262 265 269 273 274 266 258 252 248 248 249
282 275 268 262 257 253 250 247 245 243 242 241 240 239 239 240 240 239 235 230 227 226 227 229 231 232 233 234 237 241 247 254 260 262 266 271 272 266 258 251 248 248 246
285 277 268 260 254 250 247 244 242 241 240 240 239 238 237 238 239 239 236 231 226 225 224 226 228 230 232 233 235 239 245 251 257 260 263 269 270 265 258 251 248 248 245
289 279 269 260 252 247 244 241 239 239 239 239 239 238 237 236 237 238 237 233 227 223 223 224 225 227 229 231 233 236 241 247 253 258 261 266 270 264 257 250 246 246 245
294 284 273 260 249 243 240 238 236 236 236 237 238 238 237 235 234 235 235 235 231 225 222 222 222 224 226 228 229 233 237 243 249 255 259 265 267 263 256 249 246 245 245
299 289 275 262 247 237 235 234 233 232 232 233 235 236 236 235 233 232 232 233 232 229 224 220 221 222 223 225 226 229 234 240 246 252 257 262 264 260 255 249 246 245 245
305 295 278 260 243 232 230 230 227 226 227 227 227 229 231 232 233 231 231 231 231 231 230 224 219 219 221 222 223 225 229 235 241 247 252 258 259 257 253 248 245 243 243
316 304 284 259 238 228 224 223 220 218 218 216 217 220 224 228 230 231 230 229 230 232 231 229 226 221 218 218 220 222 226 232 238 243 247 252 253 252 249 245 242 240 239
Height
5845 5844 5844 5845 5846 5847 5847 5848 5849 5849 5850 5851 5852 5853 5854 5854 5855 5856 5858 5859 5860 5861 5862 5863 5864 5865 5867 5868 5871 5873 5875 5878 5880 5882 5885 5888 5890 5893 5896 5898 5900 5902 5903
5837 5836 5836 5837 5838 5839 5839 5840 5841 5842 5843 5844 5846 5847 5848 5848 5849 5850 5852 5854 5855 5856 5857 5859 5860 5861 5862 5863 5865 5868 5870 5873 5875 5877 5880 5883 5886 5889 5892 5895 5897 5899 5901
5828 5828 5828 5829 5830 5831 5832 5833 5834 5834 5836 5837 5839 5841 5842 5843 5843 5845 5846 5847 5849 5851 5852 5854 5855 5857 5858 5859 5861 5863 5865 5867 5870 5873 5875 5878 5881 5884 5887 5890 5893 5896 5898
5820 5820 5820 5821 5822 5823 5824 5826 5827 5828 5829 5830 5832 5834 5836 5837 5838 5839 5840 5842 5844 5846 5847 5849 5850 5852 5853 5854 5856 5857 5859 5861 5864 5867 5870 5873 5876 5879 5882 5885 5889 5891 5894
5814 5813 5813 5814 5814 5815 5817 5818 5820 5821 5822 5823 5825 5827 5829 5830 5832 5833 5835 5836 5838 5840 5842 5843 5845 5846 5848 5849 5850 5851 5853 5855 5858 5861 5864 5867 5870 5873 5876 5880 5883 5887 5889
5808 5807 5807 5807 5807 5808 5809 5811 5812 5813 5815 5816 5818 5820 5822 5824 5825 5827 5829 5831 5833 5835 5836 5838 5840 5841 5842 5844 5845 5846 5848 5850 5852 5854 5857 5860 5863 5867 5870 5874 5877 5881 5884
5802 5801 5800 5799 5799 5800 5802 5803 5804 5806 5807 5808 5810 5812 5814 5816 5819 5821 5823 5825 5828 5829 5831 5833 5835 5836 5837 5839 5840 5841 5842 5844 5846 5848 5850 5853 5856 5860 5863 5867 5871 5875 5878
5795 5794 5793 5792 5792 5793 5793 5795 5796 5798 5799 5801 5803 5805 5807 5810 5812 5814 5817 5819 5822 5824 5826 5828 5830 5831 5833 5834 5835 5836 5838 5839 5841 5842 5844 5846 5849 5853 5857 5860 5864 5868 5872
5787 5786 5785 5785 5785 5785 5786 5787 5788 5790 5791 5793 5795 5797 5799 5802 5805 5808 5810 5813 5816 5819 5822 5824 5826 5827 5828 5830 5831 5832 5833 5835 5836 5838 5839 5841 5843 5846 5850 5854 5857 5861 5865
5777 5776 5776 5776 5776 5777 5777 5778 5780 5781 5783 5785 5787 5790 5792 5795 5798 5801 5804 5807 5810 5813 5816 5819 5821 5823 5825 5826 5827 5828 5829 5830 5832 5833 5834 5836 5838 5840 5843 5847 5850 5854 5858
5766 5765 5765 5765 5766 5767 5768 5769 5771 5772 5774 5777 5779 5782 5785 5787 5790 5794 5798 5801 5804 5807 5811 5813 5816 5819 5821 5822 5824 5825 5826 5826 5827 5828 5830 5831 5833 5835 5837 5840 5843 5847 5850
5753 5753 5752 5753 5753 5755 5757 5759 5761 5763 5765 5767 5770 5773 5776 5780 5783 5787 5790 5794 5797 5801 5804 5808 5811 5813 5816 5818 5820 5821 5822 5822 5823 5824 5825 5826 5828 5830 5832 5834 5837 5839 5842
5738 5738 5738 5739 5739 5741 5743 5746 5749 5752 5755 5757 5760 5763 5767 5771 5775 5778 5782 5786 5790 5794 5798 5801 5804 5808 5810 5813 5815 5817 5818 5818 5819 5820 5821 5822 5823 5825 5826 5828 5830 5832 5835
5722 5722 5722 5723 5725 5726 5728 5731 5735 5738 5742 5746 5749 5753 5756 5760 5765 5769 5774 5778 5782 5787 5791 5794 5798 5801 5804 5807 5810 5812 5814 5814 5815 5816 5817 5817 5818 5819 5820 5822 5824 5825 5828
5709 5707 5707 5707 5708 5710 5712 5715 5719 5723 5727 5732 5736 5740 5745 5749 5754 5759 5764 5769 5774 5778 5783 5787 5791 5795 5798 5801 5804 5807 5808 5809 5810 5811 5812 5813 5813 5814 5815 5816 5817 5819 5821
5694 5692 5691 5690 5691 5692 5694 5698 5702 5706 5712 5716 5721 5726 5731 5736 5741 5747 5753 5758 5764 5769 5774 5779 5784 5788 5792 5795 5798 5801 5803 5804 5805 5806 5807 5808 5808 5808 5809 5810 5811 5813 5814
5676 5674 5673 5672 5672 5673 5675 5678 5683 5688 5694 5700 5705 5710 5715 5721 5727 5734 5740 5746 5753 5759 5764 5770 5775 5780 5784 5788 5791 5794 5796 5798 5799 5801 5802 5803 5803 5803 5803 5804 5805 5806 5808
5654 5651 5650 5650 5651 5652 5655 5658 5663 5668 5674 5681 5688 5693 5699 5705 5712 5719 5726 5734 5741 5747 5753 5759 5765 5771 5776 5780 5784 5787 5790 5791 5793 5795 5796 5797 5797 5797 5797 5798 5799 5800 5802
5629 5626 5625 5625 5626 5629 5632 5637 5642 5648 5654 5661 5669 5676 5682 5689 5697 5704 5712 5720 5728 5735 5742 5749 5755 5761 5767 5772 5777 5780 5783 5785 5786 5788 5790 5791 5791 5791 5792 5792 5793 5795 5797
5602 5598 5597 5598 5600 5603 5608 5614 5620 5627 5634 5641 5649 5657 5665 5672 5681 5690 5698 5706 5714 5722 5731 5738 5745 5751 5758 5764 5769 5773 5776 5778 5780 5782 5784 5785 5785 5785 5785 5786 5788 5789 5791
5574 5570 5569 5570 5573 5578 5584 5591 5599 5606 5614 5622 5629 5637 5646 5655 5664 5674 5684 5693 5701 5709 5718 5726 5734 5741 5749 5755 5761 5765 5768 5771 5773 5775 5777 5779 5779 5779 5779 5780 5782 5784 5786
5549 5544 5543 5545 5549 5554 5561 5569 5578 5586 5596 5604 5611 5618 5627 5637 5647 5658 5669 5679 5688 5697 5705 5714 5723 5731 5739 5746 5752 5757 5761 5764 5767 5769 5771 5772 5773 5773 5773 5774 5776 5778 5781
5529 5523 5521 5522 5527 5534 5542 5550 5559 5569 5579 5587 5594 5602 5610 5620 5630 5641 5653 5664 5674 5683 5693 5703 5711 5720 5729 5736 5743 5748 5753 5757 5760 5762 5764 5766 5767 5767 5767 5768 5770 5772 5775
5512 5507 5504 5504 5509 5516 5524 5533 5542 5553 5564 5573 5580 5587 5596 5604 5613 5624 5637 5649 5660 5671 5680 5691 5701 5710 5717 5725 5732 5739 5744 5749 5752 5755 5758 5760 5761 5761 5762 5762 5764 5766 5769
5500 5494 5491 5492 5495 5502 5510 5519 5530 5542 5552 5561 5568 5576 5583 5591 5598 5610 5623 5636 5647 5658 5668 5678 5688 5697 5706 5715 5723 5730 5736 5741 5745 5748 5751 5754 5755 5755 5755 5756 5758 5761 5763
5491 5486 5482 5482 5486 5492 5500 5509 5520 5531 5542 5551 5559 5566 5573 5580 5587 5596 5607 5620 5633 5645 5657 5667 5677 5686 5696 5705 5713 5721 5728 5733 5737 5741 5745 5747 5749 5750 5750 5751 5753 5755 5758